Cloud_Cover
95 100 100 98 93 100 100 100 79 100 95 100 100 26 100 100 80 90 100 100 100 100 100 20 25 8 8 100 73 8 6 5 45 5 1 1 2 0 0 5 19 48 72
100 100 100 99 100 100 100 100 100 100 99 100 100 100 100 100 100 99 99 94 100 100 100 72 87 75 5 6 60 15 3 5 0 4 4 0 1 10 88 42 86 44 56
99 100 100 100 100 100 100 100 94 55 100 100 100 100 100 100 100 100 100 100 100 100 100 86 12 68 5 5 45 0 5 1 2 10 5 5 5 5 7 5 5 79 18
40 98 100 100 100 100 93 63 91 87 72 92 100 100 100 100 100 100 100 100 100 75 98 18 6 12 7 5 43 0 1 5 8 5 5 5 5 5 8 7 12 5 5
50 99 98 100 100 100 90 95 100 100 96 17 84 100 97 83 100 100 100 100 100 100 67 5 5 67 4 6 4 3 5 5 5 6 7 5 5 5 5 7 5 6 5
5 50 100 100 82 100 100 100 97 100 15 97 52 100 82 100 100 100 100 100 100 100 96 13 5 4 5 6 5 62 75 99 59 54 76 11 5 5 5 5 6 20 82
88 10 92 100 100 100 100 100 100 100 100 87 100 100 100 100 100 100 100 100 100 100 24 5 5 4 5 61 39 20 54 100 82 86 17 88 61 91 16 5 5 9 55
90 83 66 72 100 100 100 100 99 100 25 100 100 100 100 60 100 97 100 100 100 100 99 5 5 5 5 4 5 42 48 86 65 80 35 7 6 89 57 95 52 6 6
90 32 98 22 100 100 100 100 100 100 14 100 52 100 100 100 100 100 100 100 100 97 100 97 5 5 9 5 2 20 18 88 63 54 62 64 58 97 14 100 95 91 24
82 70 98 100 100 100 100 100 100 11 7 5 54 100 100 100 100 100 100 100 100 100 85 100 56 38 90 14 5 5 17 5 5 43 62 79 100 35 54 49 93 66 62
96 82 73 100 100 100 100 95 69 86 89 100 97 100 100 100 92 100 100 100 100 100 99 73 83 7 92 67 9 5 5 5 5 22 73 84 32 34 21 97 5 12 36
79 14 97 100 100 100 100 100 100 98 100 100 100 100 100 99 98 100 100 100 88 82 100 92 47 5 11 21 81 6 7 36 66 5 7 55 29 49 7 90 15 15 55
77 100 59 63 100 100 100 91 41 100 73 12 97 100 100 93 87 100 92 100 91 64 59 95 8 5 5 12 40 18 17 5 6 5 5 17 17 23 99 55 22 95 100
100 100 100 100 93 100 100 74 8 100 100 5 81 100 100 100 97 100 54 80 97 88 100 6 34 30 43 19 49 37 6 46 11 6 5 7 5 33 69 71 93 86 43
96 100 100 86 100 100 100 28 99 100 80 16 69 100 100 100 100 98 98 100 84 72 24 18 6 98 17 42 5 15 92 99 100 47 11 41 9 21 70 15 56 71 22
100 96 81 100 100 100 100 88 100 57 17 34 33 100 100 100 100 100 100 95 82 36 32 74 77 94 5 24 13 99 84 16 14 100 43 35 89 42 79 100 91 88 100
100 100 98 100 100 100 98 91 100 100 98 81 100 39 100 100 100 100 100 100 62 98 100 46 100 99 20 5 3 58 16 78 6 48 21 5 6 6 5 16 100 100 87
100 100 99 100 100 98 100 100 100 78 46 7 47 96 78 100 100 100 100 100 29 72 48 72 94 96 22 5 10 5 24 24 100 33 18 5 5 5 4 50 71 100 100
99 13 21 100 100 100 100 100 99 21 0 57 75 54 97 100 100 100 23 61 72 47 75 27 38 49 28 5 14 46 5 55 72 100 53 5 42 5 5 5 89 67 61
39 64 86 100 100 100 100 64 93 8 8 4 81 100 100 92 16 8 28 14 90 56 58 38 14 25 5 5 5 52 55 97 13 8 40 52 6 5 5 5 5 16 8
49 96 93 100 100 99 90 44 14 25 37 52 36 46 34 10 5 21 7 11 28 30 21 25 9 5 23 3 5 16 67 12 20 5 81 37 36 54 29 5 5 5 78
72 71 100 100 95 77 6 66 100 99 73 97 5 28 4 5 5 63 24 96 69 100 69 14 5 100 62 36 40 100 54 63 57 56 60 100 60 21 10 58 68 16 16
100 100 100 100 95 41 7 36 70 84 7 100 45 27 5 18 5 78 100 71 98 100 100 92 52 16 75 98 100 94 78 91 83 12 29 98 80 32 50 53 54 63 33
94 99 100 98 87 85 7 5 4 5 12 100 100 20 47 99 32 90 100 80 86 100 100 100 1 14 5 6 19 5 100 100 96 100 97 61 13 10 27 33 19 30 28
82 81 63 5 44 18 5 5 4 2 5 57 97 10 6 16 4 46 96 78 99 99 71 98 23 3 5 5 5 30 33 100 100 100 100 100 62 59 32 64 71 73 100
4 72 70 95 84 6 4 1 4 0 0 0 0 0 2 3 28 2 5 28 19 46 43 46 6 5 0 0 5 5 4 22 82 100 100 100 100 100 100 100 100 100 100